Wind_Speed
59 52 55 65 66 67 64 61 62 65 78 86 79 81 83 81 69 60 59 53 46 44 41 40 40 44 42 42 41 39 39 35 34 33 37 40 36 39 39 41 41 39 41 42
61 56 70 73 72 71 69 65 59 66 78 91 84 82 87 82 69 61 58 53 44 43 39 39 40 37 36 33 34 33 32 33 33 36 36 38 40 40 40 41 42 43 43 42
66 67 78 76 76 74 72 67 65 65 79 90 88 84 87 77 69 64 57 52 41 44 39 39 36 34 30 31 33 33 34 33 33 34 33 33 34 38 42 43 43 44 44 44
70 79 81 82 78 79 74 75 72 66 77 88 92 82 83 76 72 65 55 49 42 46 39 39 36 33 33 32 33 32 29 28 28 30 32 32 34 34 34 34 34 37 39 41
76 77 83 79 77 80 68 73 68 69 78 87 94 82 82 78 73 59 54 47 46 46 41 41 37 35 36 34 33 29 27 26 27 27 28 30 33 33 33 34 36 38 40 41
75 73 74 75 73 65 61 62 63 70 84 93 89 79 84 78 69 61 56 47 48 49 44 43 39 38 39 38 36 32 30 28 29 30 31 33 36 38 39 40 42 44 47 50
67 61 55 54 56 53 48 59 62 75 87 78 85 79 84 76 68 61 54 50 52 52 48 44 40 41 43 39 35 33 32 32 32 34 35 36 38 40 43 43 45 48 52 55
43 41 38 40 42 44 50 66 70 73 72 80 83 76 79 73 67 59 55 53 53 53 48 44 42 46 43 40 37 34 33 35 37 39 39 39 41 44 46 48 51 53 57 61
26 25 28 30 32 35 46 54 67 73 80 82 79 78 84 72 66 58 57 55 54 53 48 44 46 47 43 42 39 37 37 38 38 39 39 43 46 48 51 55 57 60 64 66
17 19 24 28 30 38 52 61 70 83 81 83 82 83 80 70 66 60 59 58 55 52 48 47 47 48 45 42 40 40 40 39 40 43 45 47 51 54 58 61 63 66 69 74
16 19 25 32 37 46 54 63 72 77 77 80 80 78 73 67 65 62 59 58 56 53 49 48 49 48 46 42 41 41 41 41 44 47 49 53 57 60 65 67 69 72 76 80
27 38 41 46 55 60 67 68 61 71 75 72 71 76 71 68 65 61 58 58 54 51 50 50 49 47 44 45 45 45 46 47 49 52 55 59 63 67 71 74 75 79 83 85
49 57 60 58 58 65 71 55 56 67 72 68 73 72 68 65 62 60 57 56 54 52 53 53 50 48 46 48 49 50 51 52 54 58 62 65 69 73 77 78 81 85 88 92
62 65 60 59 60 59 65 48 42 42 68 72 73 70 68 64 62 60 57 55 54 53 54 53 50 49 49 51 53 54 56 57 60 64 68 72 76 79 82 84 87 90 94 98
69 62 59 54 57 55 61 54 57 69 75 76 75 70 68 65 62 60 56 54 52 52 54 54 53 51 51 54 57 58 60 63 66 70 74 79 81 84 86 89 92 96 99 99
64 55 62 57 63 57 64 67 71 76 77 77 72 68 65 59 57 54 52 52 52 53 55 55 54 54 56 57 59 62 65 68 72 76 80 82 84 88 91 94 97 100 99 95
64 63 66 63 65 70 71 72 68 70 72 70 66 65 62 56 53 52 49 50 52 54 57 57 56 58 60 61 64 67 70 74 78 80 81 84 89 92 95 98 101 97 93 94
57 62 65 66 66 66 65 59 61 67 65 62 60 59 56 55 53 51 49 48 51 55 56 57 59 61 63 66 68 71 74 77 79 82 86 89 93 96 99 97 91 90 93 94
45 49 56 61 62 61 57 53 58 59 54 53 54 53 55 54 52 51 50 50 52 54 56 58 61 64 66 68 71 73 76 80 84 87 91 93 96 96 90 87 90 91 92 94
31 39 47 51 60 57 46 51 58 54 52 53 50 52 54 55 53 50 51 52 54 56 58 60 62 64 67 70 74 77 81 85 88 90 93 94 88 84 86 87 88 89 91 95
27 31 38 41 44 45 45 50 54 50 50 50 50 52 53 53 53 53 55 55 57 59 61 64 66 68 72 75 78 82 85 88 90 90 85 82 83 84 85 87 89 92 94 92
26 28 29 32 35 39 45 51 52 50 49 51 52 53 53 53 53 55 57 58 60 62 65 67 69 73 76 79 82 85 87 86 81 80 80 80 82 85 85 88 91 90 88 93
25 25 26 27 29 37 46 51 53 52 50 51 51 53 55 56 57 59 60 62 64 67 70 72 74 76 79 81 83 81 76 75 75 76 78 82 84 84 86 87 84 89 93 99
24 25 26 26 28 33 41 48 52 54 55 56 57 58 59 60 61 62 64 67 69 71 73 74 75 77 78 74 70 71 71 72 74 77 79 81 82 84 81 84 89 94 101 107
23 24 24 23 26 30 36 42 48 53 56 58 59 60 61 62 64 65 66 67 68 69 69 67 65 64 65 65 67 68 70 74 75 77 79 79 77 78 84 90 96 103 110 115
17 18 19 22 26 27 30 33 37 40 44 47 50 53 56 58 58 58 57 56 55 56 58 59 59 61 63 65 67 69 70 73 75 74 72 72 77 83 90 97 104 111 116 122
Wind_Direction
270 273 272 264 260 257 255 248 241 234 228 225 221 215 218 223 222 224 229 230 233 241 242 244 245 247 249 254 258 259 259 261 266 271 276 287 283 282 281 284 286 289 294 292
274 273 266 263 261 256 253 250 247 237 226 224 219 213 216 218 219 222 227 227 229 238 240 241 242 244 249 252 256 257 262 266 263 272 275 278 276 277 279 285 283 284 288 291
272 268 266 263 260 258 256 250 250 237 227 221 217 212 214 215 216 219 223 225 225 236 235 237 240 245 247 253 257 261 264 262 264 268 272 280 282 283 283 285 282 284 287 290
274 270 266 264 262 257 251 248 240 230 224 218 217 209 211 210 214 217 220 221 223 231 229 233 234 241 242 244 254 252 254 256 260 265 273 277 279 282 287 290 290 289 291 294
272 269 267 264 260 256 251 246 235 223 217 213 216 207 207 207 213 213 217 217 219 224 225 227 233 236 237 240 245 246 255 261 264 267 272 277 279 284 287 290 292 295 298 299
272 267 262 259 258 256 247 238 225 217 211 210 211 203 206 203 208 210 215 214 218 221 222 225 231 234 237 241 245 250 254 259 264 269 274 278 282 288 290 295 300 302 302 303
273 268 261 255 250 243 231 225 214 206 209 201 205 199 203 201 205 208 212 212 215 220 224 226 229 236 240 241 245 250 256 260 268 274 279 283 286 289 293 296 299 302 305 306
262 251 243 242 238 226 213 210 204 202 200 195 198 194 201 197 204 207 211 214 214 222 224 226 231 237 238 242 246 252 258 266 273 278 280 284 289 292 295 298 299 302 304 304
243 235 228 221 215 206 201 197 195 188 189 194 192 192 196 194 201 203 209 215 216 221 224 226 232 236 240 244 250 256 263 270 273 278 280 285 290 294 297 299 301 302 303 305
207 200 200 197 192 193 188 188 189 184 183 186 184 190 192 191 199 202 208 216 218 219 225 231 236 239 243 246 253 258 264 269 274 277 282 287 291 295 298 301 302 301 303 305
179 182 179 168 173 177 179 176 179 184 182 185 185 188 190 193 198 204 209 216 218 221 226 233 238 239 242 247 253 258 264 269 274 281 285 288 291 296 299 300 301 303 303 305
154 149 156 160 158 162 158 156 168 177 176 183 185 185 189 195 199 205 212 217 219 224 230 233 235 239 244 251 255 260 264 270 277 282 285 290 293 295 299 301 302 303 304 305
138 144 150 156 159 159 156 150 171 179 180 182 182 186 192 195 201 207 213 217 221 226 230 234 236 241 246 252 256 261 266 273 280 284 287 291 294 297 300 301 302 303 304 306
135 145 148 150 145 151 163 137 158 185 186 183 184 188 193 198 202 209 215 219 222 227 231 236 241 245 250 255 259 264 270 276 280 282 287 292 296 298 299 300 302 303 305 307
143 143 140 142 155 148 157 162 181 185 182 184 186 190 195 200 204 210 216 220 225 230 234 239 244 249 254 258 263 268 273 276 280 285 290 294 296 297 298 301 302 304 306 304
147 149 155 157 166 163 170 180 186 180 183 185 187 192 198 203 208 212 216 221 229 233 236 241 246 251 257 262 267 271 275 280 285 289 292 294 295 297 299 301 303 303 303 303
162 165 170 171 175 180 184 186 184 183 186 185 189 194 200 205 212 217 220 226 231 234 239 245 249 254 260 265 270 274 279 284 287 290 292 294 296 298 300 302 302 302 301 302
178 176 178 182 183 191 191 187 186 188 188 188 194 197 205 211 216 219 224 232 236 238 244 249 255 261 266 270 274 278 282 286 288 290 292 295 297 299 300 301 301 301 302 303
187 186 186 191 192 197 196 191 189 191 191 195 201 204 211 219 222 225 228 234 240 246 251 256 260 264 269 273 277 280 283 287 290 293 294 296 298 299 299 299 301 302 303 303
197 195 195 197 201 203 205 193 192 194 197 203 206 213 217 223 228 233 239 243 247 252 257 260 265 269 273 277 279 283 286 289 290 292 295 297 297 297 300 301 303 303 304 305
208 210 208 212 214 215 212 199 200 202 204 211 216 221 226 232 235 238 242 247 252 257 261 266 270 273 276 279 282 285 288 289 292 294 295 295 298 300 301 302 305 305 304 304
216 220 221 225 223 222 214 210 209 211 214 218 222 227 233 238 242 247 251 254 257 260 264 268 272 275 278 281 283 286 289 292 292 293 296 298 300 301 303 304 303 303 304 306
217 222 226 224 220 218 216 217 217 220 224 228 232 236 239 243 247 251 255 259 263 265 268 271 275 279 281 283 286 289 289 290 293 296 298 299 301 303 303 302 303 304 306 306
208 211 216 218 220 218 220 225 228 231 233 236 240 244 247 251 255 258 261 264 267 271 275 277 278 280 283 285 286 288 291 294 297 298 299 301 302 302 302 303 305 305 307 308
203 209 216 216 221 223 225 226 229 232 236 241 245 250 254 257 260 263 265 268 270 272 274 277 278 279 281 285 287 291 294 295 298 299 300 302 302 302 304 305 306 308 309 311
201 205 209 215 219 222 227 230 234 237 240 244 247 249 253 256 259 261 264 266 268 270 272 276 280 282 284 287 290 294 296 296 298 301 301 302 303 304 305 307 309 311 313 313
Height
10524 10538 10537 10527 10530 10533 10540 10550 10561 10571 10576 10589 10609 10626 10624 10637 10658 10670 10677 10687 10695 10698 10706 10713 10717 10720 10722 10725 10728 10730 10733 10735 10732 10732 10732 10729 10727 10725 10721 10719 10716 10714 10711 10707
10514 10525 10505 10504 10509 10514 10521 10530 10548 10551 10557 10564 10586 10608 10606 10625 10650 10660 10668 10679 10689 10689 10700 10705 10708 10712 10714 10717 10719 10721 10724 10724 10724 10724 10723 10721 10719 10716 10713 10710 10707 10704 10701 10698
10493 10493 10477 10482 10486 10493 10503 10513 10525 10532 10533 10546 10567 10591 10598 10625 10642 10648 10660 10670 10682 10683 10694 10697 10701 10704 10707 10710 10711 10714 10715 10716 10716 10715 10714 10712 10709 10707 10704 10701 10697 10694 10691 10687
10470 10459 10457 10453 10464 10465 10476 10483 10490 10504 10507 10534 10548 10581 10592 10615 10628 10639 10652 10665 10674 10675 10686 10689 10693 10698 10700 10702 10705 10707 10708 10708 10707 10706 10705 10703 10701 10699 10696 10692 10688 10685 10682 10677
10441 10438 10426 10435 10442 10429 10459 10454 10471 10478 10491 10509 10532 10564 10585 10599 10618 10637 10645 10658 10665 10669 10678 10682 10686 10691 10692 10695 10698 10700 10701 10701 10700 10698 10696 10695 10693 10690 10686 10682 10678 10675 10671 10668
10408 10405 10403 10407 10409 10414 10429 10436 10449 10459 10471 10489 10525 10556 10567 10590 10613 10625 10636 10652 10657 10660 10669 10674 10679 10682 10685 10687 10690 10692 10693 10693 10692 10690 10689 10687 10684 10680 10677 10673 10668 10664 10658 10655
10378 10379 10380 10385 10388 10395 10411 10418 10435 10445 10455 10507 10519 10546 10559 10585 10605 10616 10630 10642 10648 10653 10661 10666 10671 10674 10677 10680 10682 10683 10684 10683 10682 10681 10679 10677 10673 10670 10666 10663 10658 10652 10647 10642
10356 10359 10364 10369 10376 10382 10392 10400 10422 10446 10478 10495 10510 10543 10558 10581 10596 10610 10623 10633 10642 10646 10653 10659 10664 10667 10669 10672 10673 10674 10674 10674 10673 10672 10670 10667 10663 10659 10655 10650 10645 10640 10634 10628
10346 10352 10356 10363 10370 10376 10387 10409 10425 10444 10465 10484 10511 10536 10544 10573 10587 10603 10615 10625 10634 10640 10646 10652 10656 10659 10661 10663 10665 10666 10665 10664 10663 10662 10659 10655 10651 10646 10642 10636 10631 10625 10619 10613
10345 10350 10353 10359 10365 10375 10383 10402 10416 10436 10455 10482 10504 10523 10545 10567 10582 10596 10607 10616 10626 10633 10639 10643 10648 10651 10653 10655 10657 10656 10655 10654 10652 10650 10647 10643 10638 10633 10628 10622 10616 10610 10603 10595
10348 10349 10354 10361 10369 10384 10401 10415 10430 10447 10463 10486 10505 10528 10549 10565 10576 10587 10599 10610 10619 10626 10632 10636 10640 10642 10644 10646 10646 10646 10645 10643 10641 10638 10635 10630 10625 10619 10614 10608 10601 10594 10586 10578
10351 10353 10362 10370 10378 10394 10409 10425 10442 10455 10471 10490 10513 10526 10544 10558 10572 10583 10594 10604 10613 10620 10624 10627 10630 10633 10636 10636 10636 10636 10633 10632 10629 10626 10622 10617 10612 10606 10599 10592 10585 10577 10568 10560
10360 10367 10377 10383 10398 10410 10423 10433 10453 10472 10480 10495 10513 10528 10542 10557 10569 10580 10590 10599 10606 10610 10615 10618 10622 10626 10627 10626 10625 10624 10622 10621 10617 10613 10608 10603 10598 10591 10584 10576 10569 10560 10550 10541
10379 10384 10393 10403 10409 10419 10435 10451 10461 10466 10482 10498 10513 10528 10541 10554 10565 10575 10584 10592 10597 10602 10607 10611 10614 10616 10617 10616 10614 10612 10611 10609 10605 10600 10596 10590 10583 10575 10568 10560 10551 10541 10532 10520
10378 10395 10404 10413 10420 10428 10439 10447 10454 10465 10480 10496 10510 10525 10536 10547 10559 10569 10577 10584 10591 10596 10600 10603 10605 10607 10607 10606 10604 10601 10599 10597 10593 10588 10582 10575 10567 10559 10551 10543 10532 10522 10511 10500
10392 10401 10408 10417 10422 10431 10439 10444 10452 10468 10480 10496 10510 10522 10535 10547 10557 10566 10574 10580 10585 10588 10591 10594 10596 10596 10595 10595 10593 10590 10587 10584 10579 10573 10567 10560 10551 10541 10533 10524 10514 10503 10491 10479
10398 10403 10413 10419 10427 10432 10437 10447 10461 10474 10485 10499 10511 10521 10534 10545 10555 10562 10569 10573 10577 10581 10584 10586 10587 10586 10585 10583 10580 10577 10574 10569 10564 10558 10550 10542 10533 10524 10514 10504 10494 10483 10470 10460
10408 10411 10418 10424 10432 10439 10448 10459 10469 10479 10491 10503 10512 10526 10535 10543 10549 10556 10562 10566 10569 10572 10575 10576 10576 10575 10573 10570 10567 10564 10560 10554 10547 10540 10533 10525 10516 10506 10495 10484 10473 10462 10451 10439
10418 10422 10428 10435 10441 10445 10455 10468 10478 10487 10499 10508 10517 10528 10534 10538 10544 10549 10555 10559 10561 10562 10564 10565 10564 10562 10560 10557 10553 10548 10544 10538 10531 10523 10515 10506 10497 10486 10475 10465 10454 10444 10432 10419
10427 10433 10438 10441 10448 10454 10462 10472 10479 10489 10500 10507 10518 10524 10529 10534 10538 10544 10547 10549 10551 10552 10552 10552 10552 10551 10547 10542 10537 10533 10528 10522 10514 10506 10497 10487 10477 10467 10458 10447 10436 10425 10413 10400
10435 10441 10446 10449 10453 10459 10467 10475 10482 10491 10500 10506 10514 10518 10523 10526 10532 10536 10538 10540 10541 10541 10540 10539 10538 10535 10532 10528 10523 10519 10512 10504 10496 10487 10478 10469 10460 10450 10440 10428 10417 10406 10394 10380
10433 10437 10442 10447 10453 10462 10466 10474 10483 10489 10495 10501 10507 10511 10515 10519 10523 10525 10527 10528 10529 10529 10527 10525 10523 10521 10517 10514 10509 10502 10494 10486 10478 10469 10461 10452 10442 10433 10422 10411 10399 10386 10376 10364
10432 10436 10441 10445 10452 10457 10463 10470 10478 10484 10490 10494 10499 10504 10507 10509 10512 10513 10515 10515 10515 10514 10513 10511 10509 10507 10501 10495 10490 10484 10476 10468 10461 10453 10444 10435 10425 10415 10404 10393 10381 10369 10357 10344
10429 10433 10437 10442 10447 10452 10458 10463 10470 10477 10481 10485 10489 10491 10494 10496 10498 10500 10502 10501 10500 10499 10497 10494 10492 10488 10483 10478 10473 10467 10460 10454 10446 10438 10428 10418 10408 10397 10385 10374 10363 10350 10337 10322
10427 10430 10434 10440 10444 10447 10452 10456 10461 10465 10470 10475 10478 10482 10485 10486 10488 10488 10488 10488 10486 10484 10481 10478 10476 10472 10468 10463 10458 10453 10446 10439 10430 10421 10412 10402 10391 10381 10369 10355 10343 10328 10309 10293
10427 10430 10433 10437 10440 10444 10447 10451 10455 10459 10464 10468 10471 10472 10473 10474 10475 10475 10474 10474 10472 10470 10467 10465 10463 10459 10454 10450 10445 10438 10431 10423 10414 10405 10395 10386 10376 10365 10353 10339 10322 10300 10283 10261